This demonstration page uses our WeatherBlox Daily Observations layout. Learn more.

Left ArrowRight Arrow

39.08367, -84.50855

Hourly Observations for June 9, 2020

Temp ( °F °C ) Dew Point ( °F °C ) Humidity (%) Winds ( mph kmh ) Pressure ( in mb ) Visibility ( mi km ) Precip ( " mm )
12:53 am 00:53 Clear 65 18.3 61 16.1 87 87 Calm 29.93 1013 10 16.0934 0 0
1:53 am 01:53 Clear 64 17.8 61 16.1 90 90 Calm 29.91 1013 10 16.0934 0 0
2:53 am 02:53 Clear 64 17.8 61 16.1 90 90 Calm 29.88 1012 10 16.0934 0 0
3:53 am 03:53 Clear 63 17.2 61 16.1 93 93 Calm 29.87 1012 10 16.0934 0 0
4:53 am 04:53 Clear 63 17.2 61 16.1 93 93 Calm 29.86 1011 10 16.0934 0 0
5:53 am 05:53 Clear 63 17.2 60 15.6 90 90 Calm 29.86 1011 10 16.0934 0 0
6:53 am 06:53 Partly Cloudy 64 17.8 61 16.1 90 90 Calm 29.87 1011 10 16.0934 0 0
7:53 am 07:53 Sunny 69 20.6 63 17.2 81 81 Calm 29.88 1012 10 16.0934 0 0
8:53 am 08:53 Sunny 74 23.3 65 18.3 74 74 Calm 29.87 1012 10 16.0934 0 0
9:53 am 09:53 Sunny 81 27.2 69 20.6 67 67 S 7 11 29.85 1011 10 16.0934 0 0
10:53 am 10:53 Sunny 83 28.3 71 21.7 67 67 S 10 17 29.83 1010 10 16.0934 0 0
11:53 am 11:53 Sunny 85 29.4 72 22.2 65 65 S 15 24 29.83 1010 10 16.0934 0 0
12:53 pm 12:53 Partly Cloudy 86 30 72 22.2 63 63 S 16 26 29.83 1010 10 16.0934 0 0
1:53 pm 13:53 Mostly Cloudy 85 29.4 72 22.2 65 65 S 13 20 29.81 1010 10 16.0934 0 0
2:53 pm 14:53 Mostly Cloudy 85 29.4 72 22.2 65 65 S 15 24 29.79 1009 10 16.0934 0 0
3:41 pm 15:41 Cloudy with Nearby Thunderstorms 78 25.6 70 21.1 76 76 SSW 25 41 29.81 1009 2.5 4.02335 0.06 1.524
3:49 pm 15:49 Cloudy with Nearby Thunderstorms 73 23 72 22 94 94 SSW 16 26 29.8 1009 1 1.60934 0.15 3.81
3:53 pm 15:53 Mostly Cloudy with Light Rain 74 23.3 72 22.2 94 94 SSW 13 20 29.81 1010 1.75 2.816345 0.16 4.064
3:55 pm 15:55 Mostly Cloudy with Light Rain 74 23.3 72 22.2 94 94 S 10 17 29.8 1009 4 6.43736 0.001 0.001
4:53 pm 16:53 Sunny 81 27.2 74 23.3 79 79 S 10 17 29.78 1008 10 16.0934 0.001 0.001
5:53 pm 17:53 Mostly Sunny 82 27.8 74 23.3 77 77 S 12 19 29.76 1008 10 16.0934 0 0
6:53 pm 18:53 Mostly Cloudy 83 28.3 74 23.3 74 74 SSE 10 17 29.75 1007 10 16.0934 0 0
7:53 pm 19:53 Sunny 82 27.8 73 22.8 74 74 S 7 11 29.76 1008 10 16.0934 0 0
8:53 pm 20:53 Mostly Sunny 81 27.2 72 22.2 74 74 S 7 11 29.76 1008 10 16.0934 0 0
9:53 pm 21:53 Mostly Clear 79 26.1 72 22.2 79 79 SSW 8 13 29.78 1008 10 16.0934 0 0
10:53 pm 22:53 Cloudy 80 26.7 72 22.2 76 76 SSW 10 17 29.78 1009 10 16.0934 0 0
11:53 pm 23:53 Cloudy 80 26.7 70 21.1 71 71 S 13 20 29.78 1009 10 16.0934 0 0

Powered by AerisWeather